IRIDIUM 39 [-] (25042 NORAD) Tracking and Keplerian Element Data

This shows tracking and keplerian element data for the satellite.

Feedback or suggestion? Click here.




ElementValue
Catalog25042
NameIRIDIUM 39 [-]
Epoch Orbit10533
Epoch Day348.92449751
Epoch Year2018
RAAN146.4098
Inclination86.3919
Eccentricity0.0017175
Argument of Perigee301.4174
Mean Anonmoly58.5349
Mean Motion14.46279214
Decay Rate1.15E-06
L11 25042U 97069D 18348.92449751 .00000115 00000-0 26466-4 0 9994
L22 25042 86.3919 146.4098 0017175 301.4174 58.5349 14.46279214105330

Live tracking and technical data element details for IRIDIUM 39 [-] (NORAD 25042). IRIDIUM 39 [-] can be tracked NOW for your location showing map with azimuth and elevation plus other details from your city location.

Track the satellite on the map from your city or location and see movement details for azimuth, elevation, latitude, longitude, range, height, and movement on the map or in text.







IsCatalogInMostPopularTable: catalog: 25042, numindb: 46
Update: records affected: 1



GetName: 25042 IRIDIUM 39 [-]

Hit Count: updated at: Sat, 15 Dec 2018 17:51:06 GMT